Home   Weather   Turku   Past weeks
Flag for Finland

Past Weather in Turku, Finland — Yesterday and Last 2 Weeks

Now
36 °F

Light rain. Overcast.


Feels Like: 31 °F
Forecast: 42 / 35 °F
Wind: 6 mph from South

Location: Turku Airport

Current Time: Dec 8, 2019 at 4:15:43 pm

Latest Report: Dec 8, 2019 at 3:50 pm


Visibility: N/A

Pressure: 29.03 "Hg

Humidity: 87%

Dew Point: 32 °F

Location of TurkuLocation

Past Weather in Turku — Graph

°F

Turku Temperature Yesterday

Maximum temperature yesterday: 43 °F (at 8:20 am)
Minimum temperature yesterday: 34 °F (at 6:50 pm)
Average temperature yesterday: 39 °F

High & Low Weather Summary for the Past Weeks

 TemperatureHumidityPressure
High46 °F (Nov 29, 3:50 am)100% (Nov 25, 9:50 am)30.30 "Hg (Nov 25, 9:50 am)
Low19 °F (Dec 2, 9:50 pm)69% (Nov 23, 4:20 pm)28.91 "Hg (Dec 7, 2:50 pm)
Average34 °F91%29.59 "Hg
* Reported Nov 23 2:20 pm — Dec 8 2:50 pm, Turku. Weather by CustomWeather, © 2019

Note: Actual official high and low records may vary slightly from our data, if they occured in-between our weather recording intervals... More about our weather records

Turku Weather History for the Previous 24 Hours

Scroll right to see more
 ConditionsComfort  
Time TempWeatherWind HumidityBarometerVisibility
2:50 pm
Sun, Dec 8
36 °FSunny.5 mph81%29.06 "Hg10 mi
2:20 pm36 °FSunny.6 mph81%29.09 "Hg10 mi
1:50 pm36 °FSunny.6 mph81%29.12 "Hg10 mi
1:20 pm36 °FSunny.6 mph81%29.12 "Hg10 mi
12:50 pm34 °FSunny.6 mph93%29.12 "Hg10 mi
12:20 pm34 °FSunny.5 mph87%29.15 "Hg10 mi
11:50 am34 °FSunny.7 mph87%29.18 "Hg10 mi
11:20 am32 °FPassing clouds.6 mph93%29.18 "HgN/A
10:20 am34 °FPartly sunny.8 mph87%29.18 "HgN/A
9:50 am34 °FPartly sunny.10 mph87%29.18 "HgN/A
9:20 am34 °FPassing clouds.6 mph87%29.18 "HgN/A
8:50 am34 °FPassing clouds.9 mph87%29.18 "HgN/A
8:20 am32 °FPassing clouds.8 mph93%29.18 "HgN/A
7:50 am32 °FPassing clouds.8 mph93%29.18 "HgN/A
7:20 am32 °FPassing clouds.8 mph93%29.18 "HgN/A
6:50 am32 °FPassing clouds.7 mph93%29.18 "HgN/A
6:20 am34 °FPassing clouds.9 mph87%29.18 "HgN/A
5:50 am34 °FPassing clouds.8 mph93%29.18 "HgN/A
5:20 am34 °FPassing clouds.7 mph87%29.18 "HgN/A
4:50 am34 °FPassing clouds.8 mph93%29.15 "HgN/A
4:20 am36 °FOvercast.10 mph87%29.15 "HgN/A
3:50 am36 °FPassing clouds.10 mph87%29.15 "HgN/A
3:20 am36 °FPassing clouds.10 mph87%29.15 "HgN/A
2:50 am36 °FPassing clouds.12 mph87%29.15 "HgN/A
2:20 am36 °FOvercast.10 mph93%29.12 "HgN/A
1:50 am36 °FPassing clouds.10 mph87%29.12 "HgN/A
1:20 am36 °FPassing clouds.8 mph87%29.09 "HgN/A
12:50 am36 °FOvercast.9 mph93%29.09 "HgN/A
12:20 am36 °FOvercast.9 mph93%29.09 "HgN/A
11:50 pm
Sat, Dec 7
36 °FPassing clouds.9 mph93%29.09 "HgN/A
11:20 pm36 °FDrizzle. Low clouds.9 mph93%29.06 "HgN/A
10:50 pm36 °FLight rain. Low clouds.9 mph93%29.06 "HgN/A
10:20 pm36 °FDrizzle. Low clouds.9 mph93%29.03 "HgN/A
9:50 pm36 °FDrizzle. Low clouds.9 mph93%29.03 "HgN/A
9:20 pm36 °FLow clouds.8 mph93%29.03 "HgN/A
8:50 pm36 °FLow clouds.9 mph93%29.00 "HgN/A
8:20 pm36 °FLow clouds.9 mph93%29.00 "HgN/A
7:50 pm36 °FLow clouds.12 mph93%28.97 "HgN/A
7:20 pm34 °FLow clouds.9 mph100%28.97 "HgN/A
6:50 pm34 °FSprinkles. Low clouds.9 mph100%28.97 "HgN/A
6:20 pm36 °FDrizzle. Low clouds.10 mph100%28.94 "Hg3 mi
5:50 pm39 °FSprinkles. Low clouds.10 mph93%28.91 "Hg4 mi
5:20 pm43 °FSprinkles. Low clouds.10 mph100%28.91 "Hg3 mi
4:50 pm43 °FFog.10 mph100%28.91 "Hg2 mi
4:20 pm43 °FDrizzle. Low clouds.13 mph100%28.91 "HgN/A
Weather by CustomWeather, © 2019

See weather overview

Advertising